#�ϑ�����,���ϕ���,���ϕ���,�ő啗��,�ő啗����������,�ő�u�ԕ���,�ő�u�ԕ�����������
#(�N����),(m/s)   ,(16����),(m/s)   ,(16����)        ,(m/s)       ,(16����)            
2012/2/1 14:14,3.5,12,3.5,12,3.6,13
2012/2/1 14:15,2.9,12,3.5,12,3.8,12
2012/2/1 14:16,2.9,15,3.3,12,5.4,16
2012/2/1 14:17,2.6,14,2.8,12,10,11
2012/2/1 14:18,4,13,4,13,10.9,11
2012/2/1 14:19,3.6,13,4,13,5.5,14
2012/2/1 14:20,3.4,12,3.5,13,7.1,12
2012/2/1 14:21,3.5,12,3.6,13,7.5,13
2012/2/1 14:22,3.4,12,3.5,13,7.4,10
2012/2/1 14:23,3.5,12,3.5,13,9.9,11
2012/2/1 14:24,3.7,12,3.7,13,10.1,12
2012/2/1 14:25,3.7,13,3.8,13,9.5,16
2012/2/1 14:26,3.8,13,3.8,13,4.7,14
2012/2/1 14:27,3.7,13,3.8,13,3.7,15
2012/2/1 14:28,3.5,13,3.6,13,7.5,10
2012/2/1 14:29,3.6,12,3.6,12,6.9,9
2012/2/1 14:30,3.7,13,3.7,12,8.6,9
2012/2/1 14:31,3.6,12,3.7,12,8.2,10
2012/2/1 14:32,3.7,12,3.8,12,8.2,9
2012/2/1 14:33,3.7,12,3.7,12,7.5,10
2012/2/1 14:34,3.7,12,3.7,12,9.8,12
2012/2/1 14:35,3.9,12,3.9,12,11.4,15
2012/2/1 14:36,3.9,11,4,12,6.2,3
2012/2/1 14:37,4,11,4,12,8.5,8
2012/2/1 14:38,3.9,11,4,12,7.1,9
2012/2/1 14:39,4.1,11,4.1,11,8.7,9
2012/2/1 14:40,4,11,4.1,11,6.7,10
2012/2/1 14:41,4,11,4.1,11,6.8,10
2012/2/1 14:42,3.9,11,4,11,5,9
2012/2/1 14:43,3.9,11,4,11,6.5,12
2012/2/1 14:44,3.6,11,3.8,11,5.2,8
2012/2/1 14:45,3.6,11,3.6,11,11.8,10
2012/2/1 14:46,4,11,4,11,10.7,10
2012/2/1 14:47,4.3,11,4.4,11,13.4,9
2012/2/1 14:48,4.5,11,4.5,11,10,13
2012/2/1 14:49,4.6,12,4.7,12,14.8,16
2012/2/1 14:50,4.7,12,4.7,12,6.5,14
2012/2/1 14:51,4.5,12,4.7,12,4.7,13
2012/2/1 14:52,4.5,12,4.6,12,6.7,8
2012/2/1 14:53,4.4,12,4.6,12,11.3,8
2012/2/1 14:54,4.6,12,4.6,12,7.2,12
2012/2/1 14:55,4.6,12,4.7,12,13.2,11
2012/2/1 14:56,4.2,12,4.5,12,7,12
2012/2/1 14:57,3.9,12,4.1,12,6.8,11
2012/2/1 14:58,3.8,12,3.9,12,9.1,12
2012/2/1 15:08,4.2,11,4.9,11,5.7,12
2012/2/1 15:09,4.3,12,4.7,11,8.2,12
2012/2/1 15:10,4.5,12,4.6,11,9.5,10
2012/2/1 15:11,4.3,12,4.6,11,10,13
2012/2/1 15:12,4.1,12,4.3,11,8.1,10
2012/2/1 15:13,4.5,12,4.5,11,13.6,12
2012/2/1 15:14,4.5,12,4.5,11,10.2,11
2012/2/1 15:15,4.7,11,4.7,11,12.6,11
2012/2/1 15:16,4.9,11,4.9,11,10.2,10
2012/2/1 15:17,4.7,11,4.8,11,7.5,10
2012/2/1 15:18,4.7,11,4.7,11,9.3,10
2012/2/1 15:19,4.8,11,4.8,11,9.2,9
2012/2/1 15:20,5,11,5,11,11.5,12
2012/2/1 15:21,4.9,11,5,11,8.9,14
2012/2/1 15:22,5.2,11,5.2,11,9.7,11
2012/2/1 15:23,5.1,11,5.4,11,10.6,10
2012/2/1 15:24,5.3,11,5.3,11,10.5,12
2012/2/1 15:25,5,11,5.3,11,8.3,12
2012/2/1 15:26,4.8,12,5,11,7.2,14
2012/2/1 15:27,4.8,12,4.8,11,9,11
2012/2/1 15:28,4.9,12,4.9,11,8.6,11
2012/2/1 15:29,4.9,12,5,11,11.9,12
2012/2/1 15:30,4.6,12,5,11,7.2,13
2012/2/1 15:31,4.6,12,4.7,11,7.2,12
2012/2/1 15:32,4.4,12,4.6,11,9.5,13
2012/2/1 15:33,4.5,12,4.5,11,11.7,13
2012/2/1 15:34,4.5,12,4.5,11,10.6,14
2012/2/1 15:35,4.7,12,4.7,11,11.5,12
2012/2/1 15:36,5.1,12,5.1,12,9.8,13
2012/2/1 15:37,5.2,13,5.2,13,11,12
2012/2/1 15:38,5,13,5.2,13,6,15
2012/2/1 15:39,4.8,13,5,13,8.9,13
2012/2/1 15:40,4.9,13,4.9,13,9.2,15
2012/2/1 15:41,4.9,13,5,13,7,12
2012/2/1 15:42,5,13,5.1,13,12.1,12
2012/2/1 15:43,4.7,13,5,13,6.2,14
2012/2/1 15:44,4.6,13,4.8,13,10.2,9
2012/2/1 15:45,4.4,13,4.5,13,8.6,13
2012/2/1 15:46,4.1,13,4.4,13,6.9,11
2012/2/1 15:47,4.3,13,4.3,13,10.2,13
2012/2/1 15:48,4.3,13,4.3,13,7.8,13
2012/2/1 15:49,4.3,12,4.3,13,6.9,8
2012/2/1 15:50,4.2,12,4.2,13,10.1,13
2012/2/1 15:51,4.4,12,4.4,13,10.6,14
2012/2/1 15:52,4.5,12,4.5,13,8.4,13
2012/2/1 15:53,4.7,13,4.7,13,10.9,14
2012/2/1 15:54,4.7,13,4.7,13,9.3,12
2012/2/1 15:55,4.9,13,5,13,10,13
2012/2/1 15:56,4.9,13,5,13,9.1,15
2012/2/1 15:57,4.9,13,4.9,13,11.6,12
2012/2/1 15:58,5.2,13,5.2,13,12.1,12
2012/2/1 15:59,5.4,13,5.4,13,7.7,10
2012/2/1 16:00,5.5,13,5.6,13,7,12
2012/2/1 16:01,5,12,5.4,13,4.8,10
2012/2/1 16:02,5,12,5.1,13,8.3,9
2012/2/1 16:03,4.8,12,4.9,13,6.1,12
2012/2/1 16:04,4.7,12,4.8,13,5.1,12
2012/2/1 16:05,4.4,12,4.6,13,5.7,13
2012/2/1 16:06,4.3,12,4.4,13,6.9,9
2012/2/1 16:07,3.9,12,4.3,13,4.5,12
2012/2/1 16:08,3.7,12,3.8,13,7.2,12
2012/2/1 16:09,3.5,12,3.7,13,5.4,12
2012/2/1 16:10,3.4,12,3.4,13,7.6,10
2012/2/1 16:11,3.6,12,3.6,12,7.7,10
2012/2/1 16:12,3.4,12,3.5,12,6.5,10
2012/2/1 16:13,3.4,12,3.4,12,6.4,10
2012/2/1 16:14,3.5,11,3.5,12,10.6,10
2012/2/1 16:15,3.7,11,3.7,12,9.4,9
2012/2/1 16:16,3.9,11,3.9,12,9.1,12
2012/2/1 16:17,4.3,11,4.3,11,11.5,11
2012/2/1 16:18,4.3,11,4.4,11,9.8,10
2012/2/1 16:19,4.2,11,4.3,11,7.5,11
2012/2/1 16:20,4.4,11,4.4,11,8.7,12
2012/2/1 16:21,4.3,12,4.4,11,7,14
2012/2/1 16:22,4.5,12,4.5,12,5.8,12
2012/2/1 16:23,4.6,12,4.6,12,6.2,12
2012/2/1 16:24,4.4,12,4.5,12,5.8,11
2012/2/1 16:25,4.1,12,4.3,12,5.8,10
2012/2/1 16:26,3.8,12,4.1,12,5.2,9
2012/2/1 16:27,3.8,12,3.9,12,12.2,12
2012/2/1 16:28,3.6,12,3.7,12,8.2,11
2012/2/1 16:29,4,12,4,12,9,11
2012/2/1 16:30,4,12,4.1,12,7,14
2012/2/1 16:31,3.8,12,4,12,3.8,12
2012/2/1 16:32,3.8,12,3.8,12,4.9,13
2012/2/1 16:33,3.6,12,3.7,12,7.1,11
2012/2/1 16:34,4,12,4,12,10.1,10
2012/2/1 16:35,4.2,12,4.2,12,8.2,15
2012/2/1 16:36,4.1,12,4.3,12,4.4,13
2012/2/1 16:37,3.9,12,4,12,6.3,13
2012/2/1 16:38,3.8,12,3.9,12,6.1,13
2012/2/1 16:39,3.5,12,3.8,12,4.7,11
2012/2/1 16:40,3.3,12,3.5,12,3.6,10
2012/2/1 16:41,3.5,11,3.5,12,5.7,9
2012/2/1 16:42,3.5,11,3.5,12,5.5,9
2012/2/1 16:43,3.4,11,3.5,12,4.5,13
2012/2/1 16:44,3.2,12,3.4,12,10.6,12
2012/2/1 16:45,3.5,12,3.5,12,13.4,12
2012/2/1 16:46,3.7,12,3.7,12,7.4,13
2012/2/1 16:47,3.7,11,3.7,12,4.2,12
2012/2/1 16:48,3.6,11,3.6,12,6.3,10
2012/2/1 16:49,3.7,11,3.7,12,7,10
2012/2/1 16:50,3.8,12,3.8,11,5,14
2012/2/1 16:51,3.8,12,3.8,11,5.2,12
2012/2/1 16:52,3.7,12,3.8,11,4.7,13
2012/2/1 16:53,3.8,12,3.8,11,7.7,10
2012/2/1 16:54,3.8,12,3.9,12,5.8,11
2012/2/1 16:55,3.3,12,3.7,12,6.5,9
2012/2/1 16:56,3.3,12,3.3,12,7.1,12
2012/2/1 16:57,3.4,12,3.4,12,5.1,13
2012/2/1 16:58,3.6,12,3.6,12,8.7,10
2012/2/1 16:59,3.8,11,3.8,12,9,10
2012/2/1 17:00,4,11,4,11,7.4,11
2012/2/1 17:01,4,11,4,11,7.5,9
2012/2/1 17:02,4.1,10,4.1,11,8.7,10
2012/2/1 17:03,4.2,10,4.3,10,7.1,10
2012/2/1 17:04,4,10,4.1,10,5.4,8
2012/2/1 17:05,4,10,4.1,10,7.1,11
2012/2/1 17:06,3.8,10,4,10,5.5,10
2012/2/1 17:07,3.7,10,3.8,10,4.7,10
2012/2/1 17:08,3.6,10,3.8,10,7.8,11
2012/2/1 17:09,3.5,11,3.6,10,7.8,11
2012/2/1 17:10,3.4,11,3.4,10,6.2,12
2012/2/1 17:11,3.7,11,3.7,10,11.6,11
2012/2/1 17:12,3.5,11,3.7,10,4.4,12
2012/2/1 17:13,3.4,11,3.5,10,7.2,12
2012/2/1 17:14,3.4,11,3.4,10,5.2,9
2012/2/1 17:15,3.3,11,3.4,10,4.8,8
2012/2/1 17:16,3.2,11,3.4,10,5.2,8
2012/2/1 17:17,3.4,11,3.4,10,6,10
2012/2/1 17:18,3.1,11,3.4,11,4.2,12
2012/2/1 17:19,2.9,11,3.1,11,7.6,10
2012/2/1 17:20,2.7,11,2.9,11,4.1,12
2012/2/1 17:21,2.6,11,2.8,11,10,12
2012/2/1 17:22,2.7,11,2.7,11,5.8,10
2012/2/1 17:23,2.9,11,2.9,11,8.5,11
2012/2/1 17:24,3.1,11,3.1,11,8.1,9
2012/2/1 17:25,3.3,11,3.3,11,7.8,12
2012/2/1 17:26,3.5,12,3.5,12,7.9,13
2012/2/1 17:27,3.8,12,3.8,12,8.4,13
2012/2/1 17:28,3.9,12,3.9,12,5.6,11
2012/2/1 17:29,4.1,12,4.2,12,9.2,13
2012/2/1 17:30,4.3,12,4.3,12,6.4,14
2012/2/1 17:31,4,12,4.3,12,4.8,13
2012/2/1 17:32,4,12,4,12,5.8,11
2012/2/1 17:33,4,12,4,12,8.4,10
2012/2/1 17:34,4.2,12,4.2,12,8.6,10
2012/2/1 17:35,4.2,12,4.2,12,10.2,10
2012/2/1 17:36,4.2,12,4.2,12,7.9,9
2012/2/1 17:37,3.9,12,4.2,12,7.6,12
2012/2/1 17:38,4,12,4,12,7.5,11
2012/2/1 17:39,3.9,12,4,12,6.7,13
2012/2/1 17:40,3.8,12,3.8,12,8.5,12
2012/2/1 17:41,3.9,11,3.9,12,8.6,12
2012/2/1 17:42,4.1,12,4.1,12,7.8,14
2012/2/1 17:43,3.9,12,4.1,12,6.5,12
2012/2/1 17:44,3.5,12,3.9,12,3.8,15
2012/2/1 17:45,3.3,12,3.5,12,5.7,11
2012/2/1 17:46,3.2,12,3.3,12,6.9,14
2012/2/1 17:47,3.3,12,3.3,12,7,11
2012/2/1 17:48,3.3,12,3.4,12,7.9,11
2012/2/1 17:49,3.3,12,3.3,12,5.8,12
2012/2/1 17:50,3.3,12,3.3,12,6.3,11
2012/2/1 17:51,3.4,12,3.4,12,9.4,10
2012/2/1 17:52,3.4,12,3.5,12,6.3,9
2012/2/1 17:53,3.2,12,3.4,12,3.9,15
2012/2/1 17:54,3.3,11,3.3,12,7.1,9
2012/2/1 17:55,3.4,11,3.4,12,8.7,9
2012/2/1 17:56,3.5,11,3.5,12,6,12
2012/2/1 17:57,3.4,11,3.4,12,6.3,11
2012/2/1 17:58,3.3,11,3.4,12,5.7,12
2012/2/1 17:59,3.4,11,3.4,12,7.4,12
2012/2/1 18:00,3.2,11,3.4,12,6,10
2012/2/1 18:01,3.1,11,3.2,12,6.9,14
2012/2/1 18:02,3.1,11,3.1,11,6.2,15
2012/2/1 18:03,3.2,11,3.2,11,4.9,9
2012/2/1 18:04,3.2,11,3.2,11,5.5,12
2012/2/1 18:05,3.4,12,3.4,11,7.8,12
2012/2/1 18:06,3.4,12,3.4,11,9.3,11
2012/2/1 18:07,3.4,12,3.4,11,7.2,13
2012/2/1 18:08,3.4,12,3.4,11,6.4,12
2012/2/1 18:09,3.4,12,3.4,11,7.1,10
2012/2/1 18:10,3.4,12,3.4,12,5.5,8
2012/2/1 18:11,3.3,12,3.5,12,4.3,15
2012/2/1 18:12,3.7,12,3.7,12,12.8,13
2012/2/1 18:13,3.6,12,3.7,12,9,12
2012/2/1 18:14,3.6,12,3.6,12,7.2,9
2012/2/1 18:15,3.3,12,3.6,12,5,14
2012/2/1 18:16,3.5,12,3.6,12,11.4,10
2012/2/1 18:17,3.6,11,3.6,12,10,12
2012/2/1 18:18,3.8,12,3.8,12,7.9,12
2012/2/1 18:19,4,12,4,12,9.5,12
2012/2/1 18:20,4.2,12,4.2,12,8.3,9
2012/2/1 18:21,4.6,11,4.6,11,10.8,12
2012/2/1 18:22,4.2,12,4.6,11,8.1,14
2012/2/1 18:23,4.4,12,4.4,11,7.9,13
2012/2/1 18:24,4.3,12,4.5,11,4.1,10
2012/2/1 18:25,4.2,12,4.3,11,5.8,13
2012/2/1 18:26,4.2,12,4.3,11,9.8,13
2012/2/1 18:27,4,12,4.2,11,6.9,10
2012/2/1 18:28,3.7,12,4,11,6.1,7
2012/2/1 18:29,3.4,12,3.7,11,5.7,11
2012/2/1 18:30,3.2,12,3.5,11,7.4,13
2012/2/1 18:31,3.1,12,3.2,11,8.7,12
2012/2/1 18:32,3.2,12,3.2,12,7.8,11
2012/2/1 18:33,3.3,12,3.3,12,9.9,13
2012/2/1 18:34,3.6,12,3.6,12,7,14
2012/2/1 18:35,4.1,12,4.1,12,10.6,13
2012/2/1 18:36,4,12,4.2,12,9.7,16
2012/2/1 18:37,4.2,12,4.2,12,7.6,11
2012/2/1 18:38,4.4,12,4.4,12,8.3,11
2012/2/1 18:39,4.5,12,4.6,12,7.5,10
2012/2/1 18:40,4.9,12,4.9,12,8.9,13
2012/2/1 18:41,5.1,12,5.1,12,8.7,12
2012/2/1 18:42,5,12,5.2,12,6.4,13
2012/2/1 18:43,4.9,12,5,12,6.7,12
2012/2/1 18:44,4.9,12,4.9,12,6.1,10
2012/2/1 18:45,4.5,12,4.9,12,6,10
2012/2/1 18:46,4.6,12,4.6,12,7.9,13
2012/2/1 18:47,4.4,12,4.6,12,4.5,14
2012/2/1 18:48,4,12,4.3,12,3.3,13
2012/2/1 18:49,4.1,12,4.1,12,9.5,10
2012/2/1 18:50,3.7,12,4.1,12,5.5,12
2012/2/1 18:51,3.7,12,3.7,12,9.8,13
2012/2/1 18:52,3.8,12,3.8,12,7.2,13
2012/2/1 18:53,3.8,12,3.9,12,7,11
2012/2/1 18:54,3.6,12,3.8,12,3.5,13
2012/2/1 18:55,3.3,12,3.6,12,2.9,10
2012/2/1 18:56,3.1,12,3.3,12,6.3,10
2012/2/1 18:57,3.3,12,3.3,12,5,12
2012/2/1 18:58,3.6,12,3.6,12,7.8,11
2012/2/1 18:59,3.4,12,3.6,12,7.5,12
2012/2/1 19:00,3.3,12,3.4,12,5,14
2012/2/1 19:01,3,12,3.3,12,3,9
2012/2/1 19:02,2.8,12,3,12,7.1,8
2012/2/1 19:03,2.8,12,2.8,12,7.4,10
2012/2/1 19:04,3,12,3,12,9.9,11
2012/2/1 19:05,3.2,12,3.2,12,6.1,11
2012/2/1 19:06,3.4,12,3.4,12,7.5,12
2012/2/1 19:07,3.6,12,3.6,12,11.4,10
2012/2/1 19:08,3.7,12,3.7,12,8.6,12
2012/2/1 19:09,3.8,12,3.8,12,8.4,11
2012/2/1 19:10,3.9,12,3.9,12,5.1,11
2012/2/1 19:11,4.1,12,4.1,12,8.3,11
2012/2/1 19:12,4.3,12,4.3,12,8.6,14
2012/2/1 19:13,4.1,12,4.3,12,5.4,12
2012/2/1 19:14,4.1,12,4.1,12,7.9,14
2012/2/1 19:15,4.1,12,4.1,12,7,11
2012/2/1 19:16,4.1,12,4.2,12,8.3,10
2012/2/1 19:17,3.8,12,4.1,12,5.5,10
2012/2/1 19:18,3.8,12,3.8,12,12.2,10
2012/2/1 19:19,3.9,12,3.9,12,8.6,13
2012/2/1 19:20,3.9,12,4,12,9.8,13
2012/2/1 19:21,3.8,12,3.9,12,9.2,9
2012/2/1 19:22,3.8,12,3.9,12,7.4,12
2012/2/1 19:23,3.8,11,3.8,12,5,11
2012/2/1 19:24,3.9,11,3.9,12,6.7,11
2012/2/1 19:25,3.8,11,3.9,12,5.8,9
2012/2/1 19:26,3.6,11,3.8,12,5.1,12
2012/2/1 19:27,3.7,12,3.7,12,6.2,13
2012/2/1 19:28,3.5,12,3.8,12,5.1,13
2012/2/1 19:29,3.5,12,3.5,12,7.5,12
2012/2/1 19:30,3.6,12,3.6,12,7.5,12
2012/2/1 19:31,3.5,12,3.6,12,4.2,12
2012/2/1 19:32,3.6,12,3.6,11,7,13
2012/2/1 19:33,3.7,12,3.7,11,9,10
2012/2/1 19:34,3.7,12,3.7,11,5.7,12
2012/2/1 19:35,3.8,12,3.8,11,5.5,11
2012/2/1 19:36,3.8,12,3.8,12,5.5,12
2012/2/1 19:37,3.9,12,3.9,12,6.1,12
2012/2/1 19:38,4,12,4,12,7.8,11
2012/2/1 19:39,3.9,12,4,12,7.8,13
2012/2/1 19:40,4,12,4,12,6.8,12
2012/2/1 19:41,4.2,12,4.2,12,8.9,12
2012/2/1 19:42,4.1,12,4.2,12,6.9,12
2012/2/1 19:43,4.3,12,4.3,12,10.1,13
2012/2/1 19:44,4.5,12,4.5,12,8.3,11
2012/2/1 19:45,4.4,12,4.5,12,6.2,11
2012/2/1 19:46,4.4,12,4.4,12,4.8,11
2012/2/1 19:47,4.6,12,4.6,12,10,14
2012/2/1 19:48,4.5,12,4.6,12,6.1,11
2012/2/1 19:49,4.5,12,4.5,12,7.7,12
2012/2/1 19:50,4.5,12,4.5,12,7.4,14
2012/2/1 19:51,4.3,12,4.5,12,5.7,13
2012/2/1 19:52,4.4,12,4.5,12,7.9,12
2012/2/1 19:53,4.1,12,4.4,12,5.6,13
2012/2/1 19:54,3.7,12,4,12,5.8,14
2012/2/1 19:55,3.7,12,3.7,12,7.6,14
2012/2/1 19:56,3.6,12,3.7,12,5.4,12
2012/2/1 19:57,3.3,12,3.6,12,3.8,12
2012/2/1 19:58,3.3,12,3.3,12,7,11
2012/2/1 19:59,3.2,12,3.3,12,6.7,10
2012/2/1 20:00,3.1,12,3.2,12,3.8,16
2012/2/1 20:01,2.9,12,3,12,4.5,12
2012/2/1 20:02,2.7,12,2.9,12,4.7,13
2012/2/1 20:03,2.7,12,2.7,12,3.8,12
2012/2/1 20:04,2.8,12,2.8,12,7,12
2012/2/1 20:05,2.9,12,3,12,7.5,12
2012/2/1 20:06,3,12,3,12,7.6,12
2012/2/1 20:07,2.9,12,3,12,4.9,13
2012/2/1 20:08,2.9,12,2.9,12,7.1,9
2012/2/1 20:09,3,12,3,12,8.1,12
2012/2/1 20:10,3.4,12,3.4,12,8.4,13
2012/2/1 20:11,3.7,12,3.7,12,9,12
2012/2/1 20:12,3.8,12,3.8,12,7.4,15
2012/2/1 20:13,4.1,12,4.1,12,6.5,13
2012/2/1 20:14,3.9,12,4.1,12,5,11
2012/2/1 20:15,3.6,12,3.9,12,3.3,9
2012/2/1 20:16,3.8,12,3.8,12,6.9,13
2012/2/1 20:17,3.9,11,3.9,12,5.4,11
2012/2/1 20:18,3.9,12,3.9,12,6,13
2012/2/1 20:19,3.7,12,3.9,12,7.2,15
2012/2/1 20:20,3.7,12,3.8,12,9.7,9
2012/2/1 20:21,3.7,12,3.7,12,10.6,13
2012/2/1 20:22,3.8,11,3.8,12,8.2,12
2012/2/1 20:23,3.8,11,3.8,12,6.4,8
2012/2/1 20:24,4,12,4,12,6.3,14
2012/2/1 20:25,4.2,12,4.2,12,5,12
2012/2/1 20:26,4,12,4.2,12,7.5,13
2012/2/1 20:27,4,12,4.1,12,6.3,12
2012/2/1 20:28,3.8,12,4,12,2.9,10
2012/2/1 20:29,3.9,12,3.9,12,8.2,10
2012/2/1 20:30,3.7,12,3.9,12,7.6,11
2012/2/1 20:31,3.4,12,3.7,12,5.7,10
2012/2/1 20:32,3.3,11,3.4,12,6.9,11
2012/2/1 20:33,3.7,12,3.7,12,12.2,15
2012/2/1 20:34,3.8,12,3.9,12,10.2,12
2012/2/1 20:35,3.9,12,3.9,12,5,11
2012/2/1 20:36,3.8,11,3.9,12,4.1,10
2012/2/1 20:37,3.7,11,3.8,12,4.3,12
2012/2/1 20:38,3.8,11,3.8,12,4.9,11
2012/2/1 20:39,3.8,12,3.8,12,7,11
2012/2/1 20:40,3.7,12,3.8,12,9.4,12
2012/2/1 20:41,3.7,12,3.7,12,5.6,15
2012/2/1 20:42,3.7,12,3.9,12,10.5,12
2012/2/1 20:43,3.3,11,3.7,12,7.7,9
2012/2/1 20:44,3.3,11,3.3,12,8.1,12
2012/2/1 20:45,3.5,11,3.5,12,7.2,13
2012/2/1 20:46,3.5,12,3.5,12,5.5,12
2012/2/1 20:47,3.5,12,3.5,12,3.8,11
2012/2/1 20:48,3.5,12,3.5,12,5.8,13
2012/2/1 20:49,3.7,12,3.7,12,9.7,13
2012/2/1 20:50,3.6,12,3.7,12,7.7,14
2012/2/1 20:51,3.5,12,3.6,12,3.5,11
2012/2/1 20:52,3.4,12,3.5,12,4.8,12
2012/2/1 20:53,3.4,12,3.4,12,7.9,11
2012/2/1 20:54,3.4,12,3.5,12,9.8,11
2012/2/1 20:55,3.3,12,3.4,12,6.3,13
2012/2/1 20:56,3.4,12,3.4,12,9.2,11
2012/2/1 20:57,3.8,12,3.8,12,8.9,11
2012/2/1 20:58,3.9,12,3.9,12,5.4,14
2012/2/1 20:59,3.6,12,3.9,12,3.8,12
2012/2/1 21:00,3.7,11,3.7,12,8.5,12
2012/2/1 21:01,4,11,4,11,10.3,11
2012/2/1 21:02,4.1,11,4.1,11,10.1,11
2012/2/1 21:03,4.1,12,4.1,11,9.2,13
2012/2/1 21:04,4,12,4.1,11,6.1,12
2012/2/1 21:05,3.9,12,4,11,5.7,13
2012/2/1 21:06,3.8,12,3.9,11,5.2,11
2012/2/1 21:07,3.6,12,3.8,11,6.2,11
2012/2/1 21:08,3.6,12,3.6,11,6.3,12
2012/2/1 21:09,3.6,12,3.6,11,5.1,10
2012/2/1 21:10,3.4,12,3.6,11,4.1,9
2012/2/1 21:11,3.2,12,3.4,11,5.4,12
2012/2/1 21:12,3.1,12,3.2,11,6.5,10
2012/2/1 21:13,3.1,12,3.3,12,7.5,10
2012/2/1 21:14,2.9,11,3.1,12,4.1,9
2012/2/1 21:15,3,11,3,12,8.7,12
2012/2/1 21:16,3,11,3,12,3.8,9
2012/2/1 21:17,2.9,11,2.9,12,7,10
2012/2/1 21:18,3,11,3,12,7.1,9
2012/2/1 21:19,3,11,3,12,4.4,12
2012/2/1 21:20,3,11,3,12,5,11
2012/2/1 21:21,2.9,11,3,12,5.6,14
2012/2/1 21:22,2.8,11,3,12,4.3,8
2012/2/1 21:23,2.7,11,2.8,12,5.8,10
2012/2/1 21:24,2.8,11,2.8,11,7.7,11
2012/2/1 21:25,2.8,10,2.8,11,6.2,9
2012/2/1 21:26,3.1,10,3.1,10,8.1,11
2012/2/1 21:27,3.1,11,3.1,10,5.4,11
2012/2/1 21:28,3,10,3.1,10,7.5,9
2012/2/1 21:29,3.1,10,3.1,10,7.6,10
2012/2/1 21:30,3.5,10,3.5,10,10.3,9
2012/2/1 21:31,3.5,10,3.5,10,4.9,10
2012/2/1 21:32,3.7,10,3.7,10,8.3,11
2012/2/1 21:33,3.9,10,3.9,10,8.2,10
2012/2/1 21:34,4,10,4,10,9.1,11
2012/2/1 21:35,4.2,10,4.2,10,9.9,8
2012/2/1 21:36,4,10,4.2,10,7,10
2012/2/1 21:37,4.1,10,4.1,10,7,12
2012/2/1 21:38,4.2,11,4.2,10,9.3,11
2012/2/1 21:39,4.3,11,4.3,11,7.1,11
2012/2/1 21:40,4.2,11,4.3,11,10.5,9
2012/2/1 21:41,4.3,11,4.3,11,6.5,14
2012/2/1 21:42,4.3,11,4.3,11,6,11
2012/2/1 21:43,4.2,11,4.3,11,8.5,12
2012/2/1 21:44,4,11,4.3,11,8.4,12
2012/2/1 21:45,3.8,11,4,11,8.5,12
2012/2/1 21:46,3.9,11,3.9,11,9.5,10
2012/2/1 21:47,4.2,11,4.2,11,10.8,9
2012/2/1 21:48,4.2,11,4.3,11,8.4,13
2012/2/1 21:49,4,11,4.2,11,7.9,8
2012/2/1 21:50,4,11,4,11,7.9,10
2012/2/1 21:51,4.1,11,4.1,11,9.1,13
2012/2/1 21:52,4.2,11,4.2,11,7.4,14
2012/2/1 21:53,4.2,12,4.3,11,7.4,12
2012/2/1 21:54,4.2,12,4.2,11,9.3,10
2012/2/1 21:55,4.3,12,4.4,12,7.2,12
2012/2/1 21:56,4.4,12,4.4,12,8.5,12
2012/2/1 21:57,4.3,12,4.4,12,8.6,12
2012/2/1 21:58,4.3,12,4.3,12,7.7,10
2012/2/1 21:59,4.3,12,4.4,12,7.1,10
2012/2/1 22:00,4.2,12,4.3,12,6.1,11
2012/2/1 22:01,4.5,12,4.5,12,12.7,10
2012/2/1 22:02,4.7,12,4.7,12,8.6,13
2012/2/1 22:03,4.6,12,4.7,12,6.5,10
2012/2/1 22:04,4.6,12,4.7,12,4.8,16
2012/2/1 22:05,4.4,12,4.6,12,4.5,10
2012/2/1 22:06,4.3,12,4.4,12,6.5,12
2012/2/1 22:07,4.3,12,4.3,12,7.2,9
2012/2/1 22:08,4.5,12,4.5,12,9.4,13
2012/2/1 22:09,4.5,12,4.6,12,6.5,13
2012/2/1 22:10,4.7,12,4.7,12,8.1,13
2012/2/1 22:11,4.2,12,4.7,12,7.5,13
2012/2/1 22:12,3.8,12,4.1,12,6.2,13
2012/2/1 22:13,3.8,12,3.9,12,5.8,13
2012/2/1 22:14,3.9,12,3.9,12,5.7,12
2012/2/1 22:15,4,12,4,12,5.8,13
2012/2/1 22:16,4,12,4,12,6.4,11
2012/2/1 22:17,3.8,12,4,12,5.1,10
2012/2/1 22:18,3.5,12,3.8,12,6.3,11
2012/2/1 22:19,3.6,12,3.6,12,9.2,10
2012/2/1 22:20,3.7,12,3.8,12,8.2,10
2012/2/1 22:21,3.8,12,3.8,12,6.1,15
2012/2/1 22:22,3.8,12,3.8,12,3.7,13
2012/2/1 22:23,3.7,11,3.8,12,4.3,11
2012/2/1 22:24,3.6,11,3.7,12,5.7,12
2012/2/1 22:25,3.5,12,3.6,12,4.2,12
2012/2/1 22:26,3.5,12,3.6,12,7.6,13
2012/2/1 22:27,3.6,12,3.6,12,7.5,10
2012/2/1 22:28,3.6,12,3.7,12,9.5,10
2012/2/1 22:29,3.5,12,3.7,12,7.4,12
2012/2/1 22:30,3.2,12,3.4,12,5.5,13
2012/2/1 22:31,3.4,12,3.4,12,11.7,9
2012/2/1 22:32,3.5,11,3.5,12,7.4,11
2012/2/1 22:33,3.7,12,3.7,11,7.4,11
2012/2/1 22:34,4.1,12,4.1,12,10.9,12
2012/2/1 22:35,4.4,12,4.4,12,10.8,13
2012/2/1 22:36,4.5,11,4.5,11,9,11
2012/2/1 22:37,4.5,11,4.6,11,7.1,11
2012/2/1 22:38,4.4,11,4.5,11,7.1,11
2012/2/1 22:39,4.2,11,4.4,11,3.6,11
2012/2/1 22:40,4.1,11,4.2,11,4.8,14
2012/2/1 22:41,3.9,11,4.1,11,5.8,13
2012/2/1 22:42,3.7,12,3.8,11,5.6,13
2012/2/1 22:43,3.5,12,3.7,11,5.6,12
2012/2/1 22:44,3.3,12,3.5,11,7.4,11
2012/2/1 22:45,3.1,12,3.3,11,6.9,10
2012/2/1 22:46,3,11,3.1,11,6.9,11
2012/2/1 22:47,2.9,12,3,11,6.9,13
2012/2/1 22:48,3,12,3,11,6.5,13
2012/2/1 22:49,3.3,11,3.3,11,10.3,10
2012/2/1 22:50,3.7,11,3.7,11,8.4,10
2012/2/1 22:51,3.7,11,3.7,11,5.4,10
2012/2/1 22:52,3.9,11,3.9,11,8.6,12
2012/2/1 22:53,4.1,11,4.1,11,7.4,12
2012/2/1 22:54,4.3,11,4.3,11,9,13
2012/2/1 22:55,4.3,11,4.3,11,7.2,13
2012/2/1 22:56,4.2,12,4.3,11,5.5,13
2012/2/1 22:57,4.3,12,4.4,12,7.1,12
2012/2/1 22:58,4.1,12,4.3,12,4.2,10
2012/2/1 22:59,3.8,12,4.1,12,3.6,9
2012/2/1 23:00,3.3,12,3.7,12,2,10
2012/2/1 23:01,3.2,11,3.3,12,2.5,8
2012/2/1 23:02,2.9,11,3.2,12,3.9,10
2012/2/1 23:03,2.7,11,2.8,12,4.3,10
2012/2/1 23:04,2.4,11,2.7,12,5.6,12
2012/2/1 23:05,2.1,11,2.3,12,3.6,9
2012/2/1 23:06,2,10,2.2,12,4.3,10
2012/2/1 23:07,1.8,10,2,12,5.2,9
2012/2/1 23:08,1.7,10,1.8,12,3.8,10
2012/2/1 23:09,1.8,10,1.8,12,4.5,9
2012/2/1 23:10,2.1,10,2.1,12,8.7,13
2012/2/1 23:11,2.2,10,2.2,11,6.1,9
2012/2/1 23:12,2.4,10,2.4,11,7.4,10
2012/2/1 23:13,2.4,11,2.4,11,5.6,11
2012/2/1 23:14,2.6,10,2.6,10,8.3,10
2012/2/1 23:15,3,11,3,11,8.3,10
2012/2/1 23:16,3.3,11,3.3,11,8.7,8
2012/2/1 23:17,3.6,11,3.6,11,9.9,10
2012/2/1 23:18,3.9,11,3.9,11,8.9,9
2012/2/1 23:19,4.1,11,4.1,11,5,10
2012/2/1 23:20,4,11,4.1,11,6.1,11
2012/2/1 23:21,4,10,4.1,11,4.4,10
2012/2/1 23:22,4,10,4,11,5.2,9
2012/2/1 23:23,4.1,10,4.1,11,6.5,11
2012/2/1 23:24,4,10,4.2,10,6.1,10
2012/2/1 23:25,3.8,10,4.1,10,7.2,11
2012/2/1 23:26,3.5,10,3.8,10,4.9,9
2012/2/1 23:27,3.3,10,3.5,10,6.7,11
2012/2/1 23:28,3.2,10,3.3,10,6,9
2012/2/1 23:29,3.1,10,3.2,10,5.4,8
2012/2/1 23:30,3,10,3.1,10,4.7,9
2012/2/1 23:31,3.2,10,3.2,10,6.8,11
2012/2/1 23:32,3.2,10,3.3,10,5.6,11
2012/2/1 23:33,3,10,3.1,10,2.4,8
2012/2/1 23:34,2.8,10,2.9,10,3.8,9
2012/2/1 23:35,2.8,10,2.8,10,5.6,10
2012/2/1 23:36,2.8,10,2.8,10,5.7,9
2012/2/1 23:37,2.6,10,2.8,10,4.7,10
2012/2/1 23:38,2.3,10,2.6,10,2,9
2012/2/1 23:39,2.3,10,2.3,10,3.1,10
2012/2/1 23:40,2.2,11,2.3,10,2.7,9
2012/2/1 23:41,1.9,11,2.1,10,4.7,10
2012/2/1 23:42,2.1,10,2.1,10,6,9
2012/2/1 23:43,2.2,10,2.2,10,5.4,10
2012/2/1 23:44,2.2,10,2.3,10,4.1,9
2012/2/1 23:45,2,11,2.2,10,2.4,9
2012/2/1 23:46,2,11,2,10,2.9,10
2012/2/1 23:47,2,11,2,10,7.7,10
2012/2/1 23:48,2.2,11,2.2,10,4.8,10
2012/2/1 23:49,2.3,10,2.3,10,5.2,9
2012/2/1 23:50,2.4,10,2.4,10,3.9,7
2012/2/1 23:51,2.5,11,2.5,10,5.5,12
2012/2/1 23:52,2.3,11,2.5,10,4.3,10
2012/2/1 23:53,2.4,11,2.4,10,6.3,10
2012/2/1 23:54,2.6,11,2.6,11,6.5,10
2012/2/1 23:55,2.7,11,2.7,11,4.3,11
2012/2/1 23:56,2.7,11,2.7,11,3.6,11
2012/2/1 23:57,2.7,11,2.7,11,3.5,13
2012/2/1 23:58,2.6,11,2.7,11,4.4,13
2012/2/1 23:59,2.6,11,2.6,11,1.8,13
2012/2/2 0:00,2.5,12,2.6,11,1.8,11
